Monterey, CA

9:42 PM PDT on June 17, 2018 (GMT -0700)
Monterey Peninsula

Weather History for KMRY - October, 2017

Change the Weather History Date:

Saturday, October 7, 2017

  Actual Average Record
Temperature  
Mean Temperature 60 °F 60 °F  
Max Temperature 70 °F 68 °F 84 °F (2002)
Min Temperature 49 °F 51 °F 46 °F (2005)
Degree Days  
Heating Degree Days 5    
Month to date heating degree days 36  
Since 1 July heating degree days 261  
Cooling Degree Days 0    
Month to date cooling degree days 4  
Year to date cooling degree days 137  
Growing Degree Days 10 (Base 50)    
Moisture  
Dew Point 46 °F    
Average Humidity 65    
Maximum Humidity 86    
Minimum Humidity 44    
Precipitation  
Precipitation 0.00 in - 0.03 in (1949)
Month to date precipitation 0.00  
Year to date precipitation 18.76  
Sea Level Pressure  
Sea Level Pressure 29.94 in    
Wind  
Wind Speed 5 mph (WSW)    
Max Wind Speed 14 mph    
Max Gust Speed 18 mph    
Visibility 10 miles    
Events      
T = Trace of Precipitation, MM = Missing Value Source: NWS Daily Summary

Daily Weather History Graph

Daily Weather History Graph

Search for Another Location

Airport or City:

Astronomy

Oct. 07, 2017 Rise Set
Actual Time 7:07 AM PDT 6:41 PM PDT
Civil Twilight 6:42 AM PDT 7:07 PM PDT
Nautical Twilight 6:12 AM PDT 7:37 PM PDT
Astronomical Twilight 5:42 AM PDT 8:07 PM PDT
Moon 8:26 PM PDT (10/7) 9:05 AM PDT (10/7)
Length of Visible Light 12h 25m
Length of Day
11h 33m
Waning Gibbous, 95% of the Moon is Illuminated
Oct 7
Waning Gibbous
Oct 12
Last Quarter
Oct 19
New
Oct 27
First Quarter
Nov 3
Full

Hourly Weather History & Observations

Time (PDT) Temp. Dew Point Humidity Pressure Visibility Wind Dir Wind Speed Gust Speed Precip Events Conditions
12:54 AM 57.0 °F 37.9 °F 49% 29.99 in 10.0 mi Calm Calm - N/A   Clear
1:54 AM 57.0 °F 37.0 °F 47% 29.99 in 10.0 mi East 3.5 mph - N/A   Clear
2:54 AM 55.9 °F 46.0 °F 69% 29.98 in 10.0 mi ESE 3.5 mph - N/A   Clear
3:54 AM 54.0 °F 37.0 °F 53% 29.96 in 10.0 mi ESE 3.5 mph - N/A   Clear
4:54 AM 55.0 °F 37.9 °F 53% 29.96 in 10.0 mi SW 3.5 mph - N/A   Clear
5:54 AM 54.0 °F 43.0 °F 66% 29.96 in 10.0 mi Calm Calm - N/A   Clear
6:54 AM 50.0 °F 37.9 °F 63% 29.95 in 10.0 mi Calm Calm - N/A   Clear
7:54 AM 53.1 °F 43.0 °F 69% 29.95 in 10.0 mi East 4.6 mph - N/A   Clear
8:54 AM 61.0 °F 43.0 °F 52% 29.96 in 10.0 mi Calm Calm - N/A   Clear
9:54 AM 64.0 °F 48.9 °F 58% 29.95 in 7.0 mi NW 4.6 mph - N/A   Clear
10:54 AM 66.0 °F 46.0 °F 48% 29.96 in 10.0 mi West 5.8 mph - N/A   Clear
11:54 AM 64.9 °F 48.0 °F 54% 29.96 in 10.0 mi NW 5.8 mph - N/A   Clear
12:54 PM 66.9 °F 46.0 °F 47% 29.94 in 10.0 mi NW 10.4 mph - N/A   Clear
1:54 PM 64.9 °F 52.0 °F 63% 29.93 in 10.0 mi WNW 6.9 mph - N/A   Clear
2:54 PM 66.9 °F 52.0 °F 59% 29.92 in 10.0 mi West 5.8 mph - N/A   Clear
3:54 PM 70.0 °F 46.9 °F 44% 29.91 in 10.0 mi Variable 6.9 mph - N/A   Clear
4:54 PM 66.0 °F 48.9 °F 54% 29.91 in 10.0 mi West 8.1 mph - N/A   Clear
5:54 PM 64.9 °F 48.9 °F 56% 29.90 in 10.0 mi WSW 4.6 mph - N/A   Clear
6:54 PM 63.0 °F 48.9 °F 60% 29.90 in 10.0 mi SW 10.4 mph - N/A   Clear
7:54 PM 60.1 °F 51.1 °F 72% 29.91 in 10.0 mi SW 6.9 mph - N/A   Clear
8:54 PM 57.9 °F 52.0 °F 81% 29.92 in 10.0 mi SW 6.9 mph - N/A   Partly Cloudy
9:54 PM 57.9 °F 52.0 °F 81% 29.91 in 10.0 mi South 5.8 mph - N/A   Clear
10:54 PM 57.0 °F 52.0 °F 83% 29.91 in 10.0 mi South 5.8 mph - N/A   Clear
11:54 PM 55.9 °F 52.0 °F 87% 29.90 in 9.0 mi SSW 8.1 mph - N/A   Scattered Clouds